Flag for Czech Republic Weather past 2 weeks in Ostrava, Czech Republic

Now
78 °F

Partly sunny.


Feels Like: 78 °F
Forecast: 55 / 81 °F
Wind: 5 mph from Southwest

Location: Ostrava / Mosnov

Current Time: Aug 1, 2015 at 4:29:48 PM

Latest Report: Aug 1, 2015 at 3:00 PM


Visibility: 25 mi

Pressure: 30.02 "Hg

Humidity: 28%

Dew point: 42 °F

Location of OstravaLocation

Historic Weather in Ostrava — Graph

°F

Ostrava temperature yesterday

Maximum temperature yesterday: 73 °F (at 2:00 PM)
Minimum temperature yesterday: 52 °F (at 4:00 AM)
Average temperature yesterday: 63 °F

Past Weeks' High & Low Weather Summary

 TemperatureHumidityPressure
High95 °F (Jul 22, 4:00 PM)99% (Jul 25, 3:00 AM)30.13 "Hg (Jul 25, 3:00 AM)
Low48 °F (Aug 1, 6:00 AM)24% (Jul 17, 3:00 PM)29.65 "Hg (Jul 25, 1:00 PM)
Average71 °F60%29.89 "Hg
* Reported Jul 17 3:00 PM — Aug 1 3:00 PM, Ostrava, Weather by CustomWeather, © 2015

Note: Actual official high and low records may vary slightly from our data, if they occured in-between our weather recording intervals... More about our weather records

Advertising

Ostrava weather history for previous 24 hours

 ConditionsComfort  
Time TempWeatherWind HumidityBarometerVisibility
3:00 PM
Sat, Aug 1
78 °FPartly sunny.5 mph28%30.02 "Hg25 mi
2:00 PM78 °FPartly sunny.5 mph25%30.03 "Hg25 mi
1:00 PM78 °FScattered clouds.N/A25%30.05 "Hg25 mi
12:00 PM75 °FScattered clouds.N/A31%30.06 "Hg22 mi
11:00 AM72 °FScattered clouds.N/A39%30.08 "Hg19 mi
10:00 AM66 °FScattered clouds.N/A48%30.10 "Hg16 mi
9:00 AM61 °FPartly sunny.N/A59%30.11 "Hg16 mi
8:00 AM56 °FScattered clouds.N/A67%30.11 "Hg16 mi
7:00 AM52 °FScattered clouds.N/A82%30.12 "Hg16 mi
6:00 AM48 °FScattered clouds.N/A88%30.13 "Hg19 mi
5:00 AM50 °FPassing clouds.1 mph85%30.12 "Hg12 mi
4:00 AM50 °FPassing clouds.1 mph87%30.11 "Hg16 mi
3:00 AM49 °FPassing clouds.2 mph83%30.11 "Hg16 mi
2:00 AM52 °FPassing clouds.2 mph76%30.12 "Hg19 mi
1:00 AM54 °FPassing clouds.N/A76%30.12 "Hg22 mi
12:00 AM56 °FPassing clouds.1 mph70%30.11 "Hg22 mi
11:00 PM
Fri, Jul 31
59 °FPassing clouds.N/A63%30.10 "Hg22 mi
10:00 PM60 °FPassing clouds.N/A57%30.09 "Hg22 mi
9:00 PM61 °FPassing clouds.3 mph56%30.06 "Hg22 mi
8:00 PM66 °FPassing clouds.2 mph47%30.04 "Hg22 mi
7:00 PM70 °FPassing clouds.3 mph38%30.02 "Hg22 mi
6:00 PM72 °FScattered clouds.5 mph35%30.02 "Hg22 mi
5:00 PM73 °FScattered clouds.3 mph31%30.02 "Hg25 mi
4:00 PM73 °FScattered clouds.3 mph31%30.02 "Hg25 mi
Weather by CustomWeather, © 2015

See weather overviewHow to use our weather pages